WetterOnline ( https://www.wetteronline.de )

Wetter aktuell Dobin am See

Aktuelles Wetter: Schwerin (68m)

6-stündlich | Neueste Meldungen
Ortszeit Temperatur Wetter
Fr, 27.11. 13:00 5.6° C wolkig
Fr, 27.11. 7:00 -0.4° C Nebel
Fr, 27.11. 1:00 2.5° C Nebel
Do, 26.11. 19:00 5.9° C bedeckt
Do, 26.11. 13:00 8.1° C bedeckt
Do, 26.11. 7:00 3.9° C bedeckt
Do, 26.11. 1:00 2.2° C Nebel
Mi, 25.11. 19:00 2.6° C bedeckt
Ortszeit Temperatur Wetter
Fr, 27.11. 13:00 5.6° C wolkig
Fr, 27.11. 12:50 5.6° C bewölkt
Fr, 27.11. 12:40 4.8° C wolkig
Fr, 27.11. 12:30 4.9° C fast wolkenlos
Fr, 27.11. 12:20 4.9° C wolkenlos
Fr, 27.11. 12:10 4.3° C wolkenlos
Fr, 27.11. 12:00 3.4° C leicht bewölkt
Fr, 27.11. 11:30 3.2° C bewölkt
Fr, 27.11. 11:00 1.7° C Nebel
Fr, 27.11. 10:30 0.5° C Nebel
Fr, 27.11. 10:00 -0.1° C Nebel
Ortszeit Relative Feuchte Sichtweite
Fr, 27.11. 13:00 92% 20 km
Fr, 27.11. 7:00 99% 100 m
Fr, 27.11. 1:00 100% 0.8 km
Do, 26.11. 19:00 99% 15 km
Do, 26.11. 13:00 99% 2.5 km
Do, 26.11. 7:00 99% 1.7 km
Do, 26.11. 1:00 99% 0.6 km
Mi, 25.11. 19:00 100% 1.6 km
Ortszeit Relative Feuchte Sichtweite
Fr, 27.11. 13:00 92% 20 km
Fr, 27.11. 12:50 92% -
Fr, 27.11. 12:40 95% -
Fr, 27.11. 12:30 93% 28 km
Fr, 27.11. 12:20 93% -
Fr, 27.11. 12:10 92% -
Fr, 27.11. 12:00 97% 18 km
Fr, 27.11. 11:30 98% 3.2 km
Fr, 27.11. 11:00 100% 0.3 km
Fr, 27.11. 10:30 100% 0.2 km
Fr, 27.11. 10:00 100% 0.9 km
Ortszeit Niederschlagsmenge Niederschlagsart
Fr, 27.11. 13:00 0.0 l/m2 in 6 Std. -
Fr, 27.11. 7:00 0.0 l/m2 in 12 Std. -
Fr, 27.11. 1:00 0.0 l/m2 in 6 Std. -
Do, 26.11. 19:00 0.4 l/m2 in 12 Std. Regen
Do, 26.11. 13:00 0.4 l/m2 in 6 Std. Regen
Do, 26.11. 7:00 0.0 l/m2 in 12 Std. -
Do, 26.11. 1:00 0.0 l/m2 in 6 Std. -
Mi, 25.11. 19:00 0.0 l/m2 in 12 Std. -
Ortszeit Niederschlagsmenge Niederschlagsart
Fr, 27.11. 13:00 0.0 l/m2 in 1 Std. -
Fr, 27.11. 12:50 keine Meldung -
Fr, 27.11. 12:40 keine Meldung -
Fr, 27.11. 12:30 0.0 l/m2 in 1 Std. -
Fr, 27.11. 12:20 keine Meldung -
Fr, 27.11. 12:10 keine Meldung -
Fr, 27.11. 12:00 0.0 l/m2 in 1 Std. -
Fr, 27.11. 11:30 0.0 l/m2 in 1 Std. -
Fr, 27.11. 11:00 0.0 l/m2 in 1 Std. -
Fr, 27.11. 10:30 0.0 l/m2 in 1 Std. -
Fr, 27.11. 10:00 0.0 l/m2 in 1 Std. -
Ortszeit Stärke Spitze Richtung
km/h Bft. km/h Grad Sektor
Fr, 27.11. 13:00 4 1 7 130° SO
Fr, 27.11. 7:00 4 1 11 230° SW
Fr, 27.11. 1:00 9 2 15 230° SW
Do, 26.11. 19:00 9 2 26 250° W
Do, 26.11. 13:00 14 3 29 250° W
Do, 26.11. 7:00 14 3 25 210° SW
Do, 26.11. 1:00 13 3 28 210° SW
Mi, 25.11. 19:00 11 2 25 200° S
Ortszeit Stärke Spitze Richtung
km/h Bft. km/h Grad Sektor
Fr, 27.11. 13:00 4 1 7 130° SO
Fr, 27.11. 12:50 4 1 - 130° SO
Fr, 27.11. 12:40 4 1 - 90° O
Fr, 27.11. 12:30 2 1 6 70° O
Fr, 27.11. 12:20 2 1 - 70° O
Fr, 27.11. 12:10 2 1 - 220° SW
Fr, 27.11. 12:00 4 1 7 210° SW
Fr, 27.11. 11:30 4 1 7 110° O
Fr, 27.11. 11:00 4 1 4 80° O
Fr, 27.11. 10:30 0 0 4 - -
Fr, 27.11. 10:00 4 1 7 160° S
Ortszeit Untergrenze Bedeckung Gattung
total tief tief mittel hoch
Fr, 27.11. 13:00 30 m 7/8 7/8 - - -
Fr, 27.11. 7:00 <30 m 8/8 0/8 - - -
Fr, 27.11. 1:00 <30 m 8/8 0/8 - - -
Do, 26.11. 19:00 4200 m 8/8 8/8 - - -
Do, 26.11. 13:00 60 m 8/8 8/8 - - -
Do, 26.11. 7:00 30 m 8/8 8/8 - - -
Do, 26.11. 1:00 <30 m 8/8 0/8 - - -
Mi, 25.11. 19:00 30 m 8/8 8/8 - - -
Ortszeit Bedeckungsgrad in Achtel und Wolkenuntergrenze
Fr, 27.11. 13:00 7(30m)
Fr, 27.11. 12:50 7(30m)
Fr, 27.11. 12:40 6(30m)
Fr, 27.11. 12:30 3(<30m)
Fr, 27.11. 12:20 keine Wolken
Fr, 27.11. 12:10 keine Wolken
Fr, 27.11. 12:00 4(<30m)
Fr, 27.11. 11:30 7(<30m)
Fr, 27.11. 11:00 8(<30m)
Fr, 27.11. 10:30 8(<30m)
Fr, 27.11. 10:00 8(<30m)
Ortszeit Luftdruck NN (hPa) Tendenz (hPa in 3 Std.)
Fr, 27.11. 13:00 1023 0,0
Fr, 27.11. 7:00 1022 + 0,4
Fr, 27.11. 1:00 1021 + 0,4
Do, 26.11. 19:00 1020 + 0,9
Do, 26.11. 13:00 1018 + 0,3
Do, 26.11. 7:00 1018 - 0,2
Do, 26.11. 1:00 1018 - 0,2
Mi, 25.11. 19:00 1018 + 0,2
Ortszeit Luftdruck NN (hPa) Tendenz (hPa in 3 Std.)
Fr, 27.11. 13:00 1023 0,0
Fr, 27.11. 12:50 1023 keine Meldung
Fr, 27.11. 12:40 1023 keine Meldung
Fr, 27.11. 12:30 1022 + 0,1
Fr, 27.11. 12:20 1022 keine Meldung
Fr, 27.11. 12:10 1023 keine Meldung
Fr, 27.11. 12:00 1023 + 0,3
Fr, 27.11. 11:30 1023 + 0,6
Fr, 27.11. 11:00 1023 + 0,9
Fr, 27.11. 10:30 1023 + 1,1
Fr, 27.11. 10:00 1023 + 1,1
Ortszeit Schneehöhe (cm)
Fr, 27.11. 13:00 0
Fr, 27.11. 7:00 0
Fr, 27.11. 1:00 0
Do, 26.11. 19:00 0
Do, 26.11. 13:00 0
Do, 26.11. 7:00 0
Do, 26.11. 1:00 0
Mi, 25.11. 19:00 0
Ortszeit Schneehöhe (cm)
Fr, 27.11. 13:00 0
Fr, 27.11. 12:50 0
Fr, 27.11. 12:40 0
Fr, 27.11. 12:30 0
Fr, 27.11. 12:20 0
Fr, 27.11. 12:10 0
Fr, 27.11. 12:00 0
Fr, 27.11. 11:30 0
Fr, 27.11. 11:00 0
Fr, 27.11. 10:30 0
Fr, 27.11. 10:00 0
Link zu dieser Seite / Seite empfehlen

Das Wetter in ...